Hourly Weather Ruszczany

Today, 20 April, Tuesday

Time Temperature Precipitation Wind Pressure Humidity
00:00 +7°C° 0 mm 2 mps 753 mmHg 80%
01:00 +6°C° 0 mm 2 mps 753 mmHg 82%
02:00 +6°C° 0 mm 2 mps 752 mmHg 83%
03:00 +5°C° 0 mm 2 mps 752 mmHg 84%
04:00 +5°C° 0 mm 2 mps 752 mmHg 85%
05:00 +5°C° 0 mm 2 mps 752 mmHg 87%
06:00 +6°C° 0 mm 2 mps 752 mmHg 82%
07:00 +8°C° 0 mm 2 mps 752 mmHg 77%
08:00 +9°C° 0 mm 2 mps 752 mmHg 73%
09:00 +10°C° 0.1 mm 2 mps 751 mmHg 68%
10:00 +12°C° 0.1 mm 2 mps 751 mmHg 63%
11:00 +14°C° 0.1 mm 2 mps 751 mmHg 58%
12:00 +14°C° 0.3 mm 2 mps 750 mmHg 56%
13:00 +15°C° 0.3 mm 2 mps 750 mmHg 53%
14:00 +15°C° 0.3 mm 2 mps 749 mmHg 51%
15:00 +15°C° 0.5 mm 2 mps 749 mmHg 53%
16:00 +14°C° 0.5 mm 2 mps 749 mmHg 56%
17:00 +14°C° 0.5 mm 2 mps 749 mmHg 58%
18:00 +13°C° 0.3 mm 2 mps 749 mmHg 64%
19:00 +10°C° 0.3 mm 2 mps 749 mmHg 71%
20:00 +10°C° 0.3 mm 1 mps 749 mmHg 77%
21:00 +9°C° 0 mm 1 mps 748 mmHg 79%
22:00 +9°C° 0 mm 1 mps 748 mmHg 81%
23:00 +8°C° 0 mm 1 mps 748 mmHg 83%

Tomorrow, 21 April, Wednesday

Time Temperature Precipitation Wind Pressure Humidity
00:00 +8°C° 0 mm 1 mps 748 mmHg 84%
01:00 +7°C° 0 mm 1 mps 748 mmHg 85%
02:00 +7°C° 0 mm 1 mps 748 mmHg 87%
03:00 +7°C° 0 mm 1 mps 748 mmHg 87%
04:00 +7°C° 0 mm 1 mps 747 mmHg 87%
05:00 +7°C° 0 mm 1 mps 747 mmHg 87%
06:00 +8°C° 0 mm 1 mps 747 mmHg 83%
07:00 +9°C° 0 mm 1 mps 747 mmHg 79%
08:00 +10°C° 0 mm 1 mps 747 mmHg 75%
09:00 +12°C° 0.2 mm 2 mps 747 mmHg 69%
10:00 +13°C° 0.2 mm 2 mps 747 mmHg 62%
11:00 +14°C° 0.2 mm 2 mps 747 mmHg 56%
12:00 +15°C° 0.1 mm 2 mps 747 mmHg 52%
13:00 +15°C° 0.1 mm 2 mps 746 mmHg 49%
14:00 +16°C° 0.1 mm 2 mps 746 mmHg 46%
15:00 +15°C° 0 mm 2 mps 746 mmHg 49%
16:00 +15°C° 0 mm 2 mps 746 mmHg 52%
17:00 +14°C° 0 mm 2 mps 746 mmHg 56%
18:00 +13°C° 0 mm 2 mps 746 mmHg 59%
19:00 +12°C° 0 mm 1 mps 746 mmHg 62%
20:00 +11°C° 0 mm 1 mps 746 mmHg 66%
21:00 +10°C° 0 mm 1 mps 746 mmHg 69%
22:00 +10°C° 0 mm 1 mps 746 mmHg 72%
23:00 +8°C° 0 mm 2 mps 746 mmHg 76%

Day after tomorrow, 22 April, Thursday

Time Temperature Precipitation Wind Pressure Humidity
00:00 +7°C° 0 mm 2 mps 746 mmHg 79%
01:00 +7°C° 0 mm 2 mps 746 mmHg 82%
02:00 +5°C° 0 mm 3 mps 746 mmHg 86%
03:00 +5°C° 0 mm 3 mps 746 mmHg 87%
04:00 +5°C° 0 mm 3 mps 746 mmHg 89%
05:00 +5°C° 0 mm 3 mps 746 mmHg 90%
06:00 +5°C° 0 mm 4 mps 746 mmHg 88%
07:00 +5°C° 0 mm 4 mps 747 mmHg 86%
08:00 +5°C° 0 mm 5 mps 748 mmHg 84%
09:00 +6°C° 0 mm 5 mps 748 mmHg 73%
10:00 +7°C° 0 mm 5 mps 748 mmHg 62%
11:00 +8°C° 0 mm 5 mps 748 mmHg 51%
12:00 +8°C° 0 mm 6 mps 748 mmHg 48%
13:00 +8°C° 0 mm 6 mps 748 mmHg 46%
14:00 +8°C° 0 mm 6 mps 748 mmHg 43%
15:00 +8°C° 0 mm 6 mps 748 mmHg 45%
16:00 +8°C° 0 mm 6 mps 748 mmHg 46%
17:00 +8°C° 0 mm 6 mps 748 mmHg 48%
18:00 +7°C° 0 mm 5 mps 748 mmHg 53%
19:00 +5°C° 0 mm 4 mps 749 mmHg 58%
20:00 +3°C° 0 mm 3 mps 749 mmHg 63%
21:00 +3°C° 0 mm 3 mps 749 mmHg 66%
22:00 +1°C° 0 mm 4 mps 749 mmHg 69%
23:00 +1°C° 0 mm 4 mps 749 mmHg 73%

23 April, Friday

Time Temperature Precipitation Wind Pressure Humidity
00:00 +1°C° 0 mm 3 mps 749 mmHg 75%
01:00 +1°C° 0 mm 3 mps 749 mmHg 78%
02:00 0°C° 0 mm 3 mps 749 mmHg 81%
03:00 0°C° 0 mm 3 mps 749 mmHg 83%
04:00 -1°C° 0 mm 4 mps 749 mmHg 86%
05:00 -1°C° 0 mm 4 mps 749 mmHg 88%
06:00 0°C° 0 mm 4 mps 749 mmHg 86%
07:00 0°C° 0 mm 5 mps 750 mmHg 85%
08:00 +1°C° 0 mm 5 mps 750 mmHg 83%
09:00 +2°C° 0.1 mm 6 mps 750 mmHg 78%
10:00 +2°C° 0.1 mm 6 mps 750 mmHg 74%
11:00 +3°C° 0.1 mm 6 mps 750 mmHg 69%
12:00 +3°C° 0.3 mm 6 mps 750 mmHg 72%
13:00 +3°C° 0.3 mm 6 mps 750 mmHg 74%
14:00 +3°C° 0.3 mm 7 mps 750 mmHg 77%
15:00 +3°C° 0.3 mm 6 mps 751 mmHg 77%
16:00 +3°C° 0.3 mm 6 mps 751 mmHg 77%
17:00 +2°C° 0.3 mm 6 mps 752 mmHg 77%
18:00 +1°C° 0.1 mm 6 mps 752 mmHg 76%
19:00 -1°C° 0.1 mm 6 mps 753 mmHg 75%
20:00 -1°C° 0.1 mm 5 mps 753 mmHg 74%
21:00 -2°C° 0 mm 5 mps 753 mmHg 77%
22:00 -2°C° 0 mm 5 mps 753 mmHg 79%
23:00 -3°C° 0 mm 4 mps 754 mmHg 82%

24 April, Saturday

Time Temperature Precipitation Wind Pressure Humidity
00:00 -3°C° 0 mm 4 mps 754 mmHg 83%
01:00 -2°C° 0 mm 3 mps 754 mmHg 84%
02:00 -4°C° 0 mm 3 mps 754 mmHg 85%
03:00 -4°C° 0 mm 3 mps 754 mmHg 83%
04:00 -4°C° 0 mm 3 mps 754 mmHg 81%
05:00 -4°C° 0 mm 3 mps 754 mmHg 79%
06:00 -1°C° 0 mm 3 mps 754 mmHg 74%
07:00 0°C° 0 mm 4 mps 754 mmHg 68%
08:00 +2°C° 0 mm 5 mps 753 mmHg 63%
09:00 +3°C° 0.1 mm 5 mps 753 mmHg 55%
10:00 +6°C° 0.1 mm 5 mps 753 mmHg 47%
11:00 +7°C° 0.1 mm 6 mps 753 mmHg 40%
12:00 +7°C° 0.1 mm 6 mps 753 mmHg 43%
13:00 +7°C° 0.1 mm 6 mps 753 mmHg 46%
14:00 +7°C° 0.1 mm 6 mps 753 mmHg 49%
15:00 +7°C° 0.2 mm 5 mps 753 mmHg 52%
16:00 +6°C° 0.2 mm 5 mps 752 mmHg 55%
17:00 +6°C° 0.2 mm 5 mps 752 mmHg 58%
18:00 +5°C° 0 mm 4 mps 753 mmHg 63%
19:00 +3°C° 0 mm 3 mps 753 mmHg 68%
20:00 +2°C° 0 mm 3 mps 753 mmHg 73%
21:00 +1°C° 0 mm 3 mps 753 mmHg 76%
22:00 0°C° 0 mm 3 mps 754 mmHg 79%
23:00 -2°C° 0 mm 3 mps 754 mmHg 82%

25 April, Sunday

Time Temperature Precipitation Wind Pressure Humidity
00:00 -2°C° 0 mm 3 mps 754 mmHg 84%
01:00 -2°C° 0 mm 3 mps 754 mmHg 86%
02:00 -4°C° 0 mm 3 mps 755 mmHg 89%
03:00 -4°C° 0 mm 3 mps 755 mmHg 87%
04:00 -4°C° 0 mm 3 mps 755 mmHg 85%
05:00 -4°C° 0 mm 3 mps 755 mmHg 83%
06:00 -2°C° 0 mm 4 mps 755 mmHg 74%
07:00 0°C° 0 mm 4 mps 755 mmHg 65%
08:00 +1°C° 0 mm 5 mps 755 mmHg 57%
09:00 +3°C° 0 mm 6 mps 755 mmHg 51%
10:00 +4°C° 0 mm 6 mps 754 mmHg 46%
11:00 +6°C° 0 mm 7 mps 754 mmHg 41%
12:00 +6°C° 0.1 mm 7 mps 754 mmHg 42%
13:00 +6°C° 0.1 mm 7 mps 754 mmHg 44%
14:00 +6°C° 0.1 mm 8 mps 754 mmHg 45%
15:00 +6°C° 0.1 mm 8 mps 755 mmHg 49%
16:00 +5°C° 0.1 mm 8 mps 755 mmHg 53%
17:00 +5°C° 0.1 mm 7 mps 755 mmHg 57%
18:00 +3°C° 0 mm 7 mps 755 mmHg 61%
19:00 +2°C° 0 mm 6 mps 756 mmHg 65%
20:00 0°C° 0 mm 5 mps 756 mmHg 69%
21:00 -1°C° 0 mm 5 mps 756 mmHg 73%
22:00 -1°C° 0 mm 4 mps 756 mmHg 77%
23:00 -2°C° 0 mm 4 mps 757 mmHg 82%
Show more